Spokane, WA

8:54 AM PDT on August 17, 2017 (GMT -0700)
Spokane International

Weather History for KGEG - May, 2012

Change the Weather History Date:

Thursday, May 3, 2012

  Actual Average Record
Temperature  
Mean Temperature 45 °F 51 °F  
Max Temperature 50 °F 63 °F 83 °F (1937)
Min Temperature 39 °F 40 °F 29 °F (1996)
Degree Days  
Heating Degree Days 20 14  
Month to date heating degree days 61 42  
Since 1 July heating degree days 6043 6178  
Cooling Degree Days 0 0  
Month to date cooling degree days 0 0  
Year to date cooling degree days 2 0  
Moisture  
Dew Point 39 °F    
Average Humidity 80    
Maximum Humidity 93    
Minimum Humidity 67    
Precipitation  
Precipitation 0.29 in 0.04 in 0.62 in (1948)
Month to date precipitation 0.41 0.12  
Year to date precipitation 9.85 6.13  
Snow  
Snow 0.00 in 0.00 in T in (1982)
Month to date snowfall 0.0 0.0  
Since 1 July snowfall 36.8 44.8  
Snow Depth 0.00 in    
Sea Level Pressure  
Sea Level Pressure 29.75 in    
Wind  
Wind Speed 9 mph (SE)    
Max Wind Speed 22 mph    
Max Gust Speed 26 mph    
Visibility 8 miles    
Events Rain    
T = Trace of Precipitation, MM = Missing Value Source: NWS Daily Summary

Daily Weather History Graph

Daily Weather History Graph

Search for Another Location

Airport or City:

Trip Planner

Search our weather history database for the weather conditions in past years. The results will help you decide how hot, cold, wet, or windy it might be!

Date:

Astronomy

May. 03, 2012 Rise Set
Actual Time 5:28 AM PDT 8:05 PM PDT
Civil Twilight 4:54 AM PDT 8:40 PM PDT
Nautical Twilight 4:10 AM PDT 9:25 PM PDT
Astronomical Twilight 3:19 AM PDT 10:16 PM PDT
Moon 5:27 PM PDT (5/3) 3:46 AM PDT (5/3)
Length of Visible Light 15h 46m
Length of Day
14h 37m
Waxing Gibbous, 92% of the Moon is Illuminated
May 3
Waxing Gibbous
May 5
Full
May 12
Last Quarter
May 20
New
May 28
First Quarter

Hourly Weather History & Observations

Time (PDT) Temp. Windchill Dew Point Humidity Pressure Visibility Wind Dir Wind Speed Gust Speed Precip Events Conditions
12:53 AM 41.0 °F 34.3 °F 34.0 °F 76% 29.84 in 10.0 mi East 11.5 mph - N/A   Overcast
1:53 AM 41.0 °F 33.5 °F 33.1 °F 73% 29.81 in 10.0 mi ENE 13.8 mph - N/A   Overcast
2:53 AM 39.9 °F 33.9 °F 34.0 °F 79% 29.79 in 10.0 mi NE 9.2 mph - N/A   Overcast
3:53 AM 39.9 °F 34.5 °F 34.0 °F 79% 29.78 in 10.0 mi NE 8.1 mph - N/A   Overcast
4:53 AM 39.9 °F 32.9 °F 33.1 °F 77% 29.74 in 10.0 mi ENE 11.5 mph - N/A   Overcast
5:53 AM 39.0 °F 32.3 °F 34.0 °F 82% 29.72 in 10.0 mi NE 10.4 mph - N/A   Overcast
6:53 AM 39.9 °F 35.8 °F 33.1 °F 77% 29.71 in 10.0 mi Variable 5.8 mph - N/A   Overcast
7:53 AM 42.1 °F 36.6 °F 32.0 °F 67% 29.72 in 10.0 mi ENE 9.2 mph - N/A   Overcast
8:53 AM 43.0 °F 40.3 °F 33.1 °F 68% 29.73 in 10.0 mi East 4.6 mph - 0.00 in   Overcast
9:53 AM 44.1 °F 41.5 °F 36.0 °F 73% 29.73 in 7.0 mi East 4.6 mph - 0.01 in Rain Light Rain
10:10 AM 42.8 °F 40.1 °F 37.4 °F 81% 29.70 in 6.0 mi ESE 4.6 mph - 0.01 in Rain Light Rain
10:53 AM 43.0 °F 40.3 °F 39.0 °F 86% 29.73 in 5.0 mi ESE 4.6 mph - 0.04 in Rain Light Rain
11:28 AM 42.8 °F 41.1 °F 39.2 °F 87% 29.71 in 5.0 mi SE 3.5 mph - 0.04 in Rain Light Rain
11:53 AM 43.0 °F 40.3 °F 39.0 °F 86% 29.73 in 5.0 mi South 4.6 mph - 0.06 in Rain Light Rain
12:53 PM 44.1 °F 41.5 °F 39.9 °F 85% 29.74 in 5.0 mi South 4.6 mph - 0.04 in Rain Light Rain
1:41 PM 44.6 °F 40.2 °F 39.2 °F 81% 29.71 in 7.0 mi SSE 8.1 mph - 0.04 in Rain Light Rain
1:53 PM 45.0 °F 41.2 °F 41.0 °F 86% 29.74 in 10.0 mi SSE 6.9 mph - 0.04 in Rain Light Rain
2:53 PM 48.0 °F - 42.1 °F 80% 29.73 in 10.0 mi SSE 8.1 mph - 0.00 in   Overcast
3:53 PM 48.0 °F - 44.1 °F 86% 29.72 in 7.0 mi SSE 5.8 mph - 0.00 in Rain Light Rain
4:53 PM 48.9 °F - 43.0 °F 80% 29.72 in 7.0 mi SSE 5.8 mph - 0.00 in   Overcast
5:34 PM 50.0 °F - 44.6 °F 82% 29.71 in 10.0 mi South 6.9 mph - 0.00 in Rain Light Rain
5:53 PM 50.0 °F - 44.1 °F 80% 29.73 in 10.0 mi South 8.1 mph - 0.00 in   Overcast
6:53 PM 50.0 °F - 45.0 °F 83% 29.73 in 7.0 mi SSE 6.9 mph - 0.00 in Rain Light Rain
7:53 PM 48.9 °F - 46.0 °F 90% 29.74 in 7.0 mi East 3.5 mph - 0.01 in Rain Light Rain
8:28 PM 48.2 °F - 44.6 °F 87% 29.74 in 10.0 mi South 4.6 mph - 0.00 in Rain Light Rain
8:53 PM 48.9 °F - 45.0 °F 86% 29.77 in 10.0 mi South 11.5 mph 20.7 mph 0.00 in   Overcast
9:32 PM 48.2 °F - 44.6 °F 87% 29.77 in 7.0 mi South 13.8 mph - 0.08 in Rain Light Rain
9:53 PM 46.9 °F - 45.0 °F 93% 29.79 in 10.0 mi South 13.8 mph - 0.08 in   Overcast
10:53 PM 46.9 °F - 44.1 °F 90% 29.81 in 10.0 mi SSW 13.8 mph - 0.01 in   Overcast
11:53 PM 45.0 °F 37.1 °F 39.0 °F 80% 29.83 in 10.0 mi SSW 19.6 mph - N/A   Mostly Cloudy